Wetbulb
59.62 54.82 51.44 50.77 39.46 36.79 32.17 36.14 40.71 41.61 41.19 41.81 43.64 40.07 37.55 38.46 38.14 32.40 45.81 47.73 48.49 49.72 51.83 52.41 58.12 59.81 60.81 61.38 62.53 63.21 64.02 64.79 65.92 66.17 66.28 66.45 66.46 66.43 66.50 66.20 65.81 66.00 66.82 67.00 67.67 68.05 68.55 68.41 69.28
57.74 56.43 51.18 45.06 35.08 29.65 30.26 36.19 39.12 42.38 43.48 44.39 42.94 41.24 38.55 36.84 43.25 43.52 42.71 47.42 49.04 49.96 51.30 51.76 57.38 59.28 60.36 61.45 62.55 62.91 63.50 64.09 65.29 65.05 65.24 65.06 65.28 65.51 65.67 65.88 65.57 65.52 66.15 66.66 66.70 67.07 67.09 67.95 68.02
56.65 55.62 44.98 38.99 33.62 30.28 32.22 38.39 39.36 42.37 43.05 43.04 39.43 40.71 39.36 38.26 42.25 41.65 44.81 47.45 48.70 48.69 50.53 51.77 57.08 58.92 60.20 60.93 61.74 61.99 62.48 63.08 63.41 64.32 64.87 64.73 64.57 64.27 64.24 64.27 64.27 64.75 65.36 65.73 66.22 66.50 66.59 66.82 67.13
49.64 47.88 43.35 35.26 32.27 34.92 37.19 39.63 41.40 41.76 42.20 41.80 39.69 35.59 39.79 41.96 41.97 43.22 45.96 47.17 46.75 48.08 49.84 51.97 56.58 58.44 59.75 59.73 59.99 60.89 61.58 62.56 63.22 63.44 63.82 63.87 63.79 63.30 63.16 63.12 63.19 63.67 63.97 64.66 64.86 65.50 65.85 66.02 66.30
48.33 43.43 35.30 31.70 32.32 35.02 38.15 41.30 41.72 40.04 39.13 39.72 39.73 34.93 36.62 41.80 44.15 44.22 44.43 46.20 45.79 46.61 48.68 50.12 55.30 56.96 58.44 59.41 59.40 60.03 59.66 60.75 61.00 61.14 60.86 62.19 62.92 62.56 62.02 62.32 62.07 62.64 63.11 63.43 63.68 63.52 64.07 64.35 64.99
43.62 41.58 32.44 28.80 30.67 34.64 36.87 40.54 41.24 39.34 39.46 39.51 38.33 36.03 35.21 41.11 41.57 42.50 43.95 43.46 45.44 46.07 47.92 49.17 52.43 54.91 56.72 58.10 58.18 58.72 58.06 58.52 58.53 58.60 58.67 59.50 60.35 60.96 61.11 61.19 61.29 61.88 61.77 62.20 62.21 62.97 63.38 63.06 63.79
43.27 37.93 32.70 31.09 32.83 34.94 37.59 41.07 38.21 36.58 37.00 36.72 39.23 34.83 35.56 37.57 41.34 42.73 42.18 42.35 43.49 44.61 44.91 46.16 48.31 51.26 53.89 55.34 55.39 56.50 56.25 56.75 56.30 56.29 56.07 56.21 57.39 57.95 58.73 58.72 59.75 60.74 60.33 60.25 60.78 61.24 61.65 61.99 62.73
42.72 39.12 34.35 31.91 32.49 33.93 38.14 39.21 39.58 38.63 36.02 40.23 39.56 32.91 30.67 34.71 41.06 41.42 41.47 40.66 40.93 41.63 41.93 42.91 45.94 49.10 50.33 50.96 53.31 54.85 54.02 53.59 53.62 53.25 52.48 52.74 53.78 55.27 55.62 55.93 57.08 58.76 58.69 58.33 58.95 59.65 60.35 60.65 60.83
44.37 36.07 33.06 34.95 34.80 35.69 38.51 36.95 39.02 38.89 35.93 36.94 38.31 36.16 37.04 38.85 40.11 38.48 37.49 37.37 38.24 40.06 39.37 40.80 43.30 47.77 50.16 50.21 50.53 51.89 51.48 50.84 50.47 50.15 49.80 49.71 49.78 49.81 51.64 53.95 55.41 56.73 56.69 57.20 57.34 58.29 58.64 58.10 57.97
41.18 35.21 35.73 39.00 38.09 36.81 37.79 37.83 37.32 35.39 34.50 34.37 34.81 36.64 37.98 37.78 36.64 34.98 34.03 33.87 35.11 36.09 37.58 39.01 40.64 44.30 48.70 50.07 48.69 48.66 48.64 47.75 47.72 47.35 46.46 47.06 47.28 47.50 49.28 50.80 53.05 54.14 54.29 55.23 56.44 56.28 56.13 55.23 55.24
40.24 35.73 36.81 37.77 39.32 39.85 38.39 36.79 38.17 35.33 32.13 33.08 32.66 33.82 35.27 34.98 34.44 34.17 33.88 33.70 33.87 35.37 36.92 37.87 39.36 41.42 46.82 46.62 47.64 47.01 46.98 46.45 46.69 45.69 45.63 45.16 45.67 45.73 46.25 47.65 49.69 50.65 51.80 51.40 52.88 52.48 52.74 52.92 53.33
37.05 39.15 38.74 39.14 39.70 38.94 37.13 37.68 34.17 33.83 33.53 36.18 34.92 35.09 34.17 33.50 33.13 33.21 33.00 34.13 34.14 34.44 35.43 36.30 37.62 39.56 42.57 45.37 46.06 43.57 45.35 43.81 44.64 45.23 44.64 43.30 43.44 43.50 44.35 44.93 46.45 48.06 49.59 50.15 50.80 51.57 51.42 51.35 51.66
35.36 36.71 38.93 38.83 39.12 37.85 38.66 34.66 33.36 31.88 34.76 35.68 35.84 35.32 33.14 32.85 33.08 33.34 34.07 34.09 33.81 33.37 34.80 35.91 37.55 39.31 40.56 43.08 42.90 40.75 40.69 40.25 41.88 41.69 41.89 42.72 41.80 41.88 43.15 43.28 44.26 45.12 46.46 48.04 49.94 50.67 50.50 49.90 49.58
36.20 36.84 36.63 37.63 37.47 37.98 35.14 33.25 34.84 33.44 35.31 34.41 34.61 32.62 32.16 33.03 32.62 31.93 32.50 32.34 32.99 34.07 34.71 37.33 39.15 40.05 40.52 40.05 39.61 38.88 38.56 38.16 38.48 38.55 39.19 39.60 41.34 40.89 41.26 42.16 42.73 43.50 44.84 46.75 49.04 50.12 50.12 48.80 48.55
36.61 33.18 34.45 34.59 36.64 35.29 36.00 31.15 30.01 34.30 35.63 33.76 32.69 31.50 32.48 32.76 32.77 30.59 31.91 32.29 32.80 33.65 36.22 37.86 39.66 39.38 39.31 39.50 39.97 39.94 39.45 38.63 37.99 38.15 38.01 38.21 38.72 38.84 39.28 40.81 41.97 42.65 44.47 45.59 46.64 48.61 49.96 48.15 47.52
33.19 31.61 26.09 33.61 35.89 35.39 33.42 26.20 32.35 34.30 33.81 31.47 30.92 29.55 31.82 32.40 32.82 31.34 32.80 32.68 32.50 32.30 35.32 37.42 39.62 38.34 38.67 38.94 39.59 40.26 40.54 38.58 38.17 37.82 37.11 37.56 37.77 37.62 38.04 39.35 40.02 41.37 43.08 43.93 43.89 44.70 47.99 47.06 45.94
28.76 23.98 26.16 29.25 35.27 33.97 31.95 26.67 33.01 34.68 33.61 31.10 29.12 29.86 31.04 31.25 31.12 31.23 32.56 31.96 31.91 32.20 34.74 35.70 36.90 36.75 37.58 38.09 39.09 38.70 38.90 38.48 37.33 36.55 36.35 36.53 37.10 36.88 35.42 37.73 39.94 40.91 40.91 41.75 42.38 42.88 45.19 45.69 45.52
25.06 25.65 27.12 25.99 31.39 31.80 29.42 27.37 31.36 33.67 33.20 30.70 29.60 29.72 30.15 30.84 31.28 32.89 33.16 33.45 32.06 31.77 34.08 35.13 36.28 35.68 36.47 36.20 36.42 36.15 36.31 36.92 36.13 34.80 36.11 36.23 36.31 36.01 34.17 35.22 37.47 38.90 39.92 39.69 41.18 41.08 42.76 44.81 44.13
31.31 28.54 26.62 27.88 32.23 30.42 28.61 28.13 30.13 32.77 32.77 30.35 29.23 29.61 29.69 30.61 32.79 33.42 33.56 33.10 31.92 31.59 32.92 33.77 34.31 34.07 34.19 33.41 33.28 33.54 32.99 34.23 34.79 35.29 35.75 35.66 35.45 35.36 33.80 33.21 34.64 35.92 37.94 38.97 39.76 40.78 40.40 41.62 44.46
30.36 27.48 24.97 28.32 31.70 29.68 29.10 28.73 30.36 32.14 32.77 31.60 30.44 30.14 30.31 31.25 30.93 32.97 32.31 31.15 30.77 30.32 31.40 32.86 33.70 32.97 33.43 33.31 33.40 32.86 32.89 33.31 33.53 34.43 34.80 35.45 35.04 34.56 33.72 32.56 32.51 34.39 35.34 36.65 38.21 38.83 38.64 40.19 42.03
27.63 27.37 25.68 26.76 28.11 29.03 26.65 25.00 27.99 31.54 32.49 33.05 32.48 32.74 31.83 31.23 30.34 30.29 30.78 29.68 29.35 29.70 30.36 32.77 32.06 32.11 31.84 32.50 32.86 32.40 32.17 32.36 31.82 31.45 31.89 33.18 34.44 34.09 33.04 32.45 32.13 32.30 34.37 34.58 35.98 38.16 38.10 36.63 39.28
26.09 31.39 30.44 27.97 24.31 20.35 26.35 18.14 24.72 29.77 30.55 32.34 31.81 29.43 29.76 30.68 30.57 30.21 29.84 29.20 29.56 29.97 31.31 31.47 31.56 31.34 32.34 31.22 30.29 28.79 27.96 27.26 29.24 29.44 30.44 31.14 32.26 32.17 32.25 32.22 31.84 31.61 32.39 33.81 35.14 38.02 38.22 38.19 35.48
28.49 31.75 29.91 27.42 24.02 22.16 22.00 18.29 25.07 28.52 27.42 29.83 29.76 29.14 28.88 29.64 29.66 28.96 29.26 30.52 31.00 31.29 29.46 29.28 29.94 30.10 29.98 29.54 28.82 27.46 26.29 27.57 28.26 27.89 27.71 28.44 29.52 30.29 30.39 30.73 31.05 30.94 31.47 32.61 34.57 35.37 36.61 37.93 36.44
33.29 29.41 28.57 26.33 23.30 10.56 20.88 20.81 22.24 23.63 29.12 29.01 29.91 30.31 29.77 28.24 28.28 29.02 30.32 31.00 30.48 29.63 28.66 28.55 28.53 28.23 28.58 27.89 27.23 25.90 24.69 24.94 24.78 24.98 24.79 25.54 26.71 27.43 28.02 28.97 29.63 30.67 30.84 31.23 33.50 34.98 34.51 35.96 36.98
29.78 25.02 11.02 11.63 8.11 12.79 21.67 20.08 23.93 29.21 30.80 31.32 31.12 30.53 28.65 28.83 27.13 27.53 28.09 28.90 28.56 27.73 27.40 28.91 27.52 26.55 26.89 26.57 26.17 25.41 24.68 24.08 23.58 23.51 23.22 23.37 23.60 24.19 24.99 26.59 27.08 28.90 30.31 31.00 32.88 33.81 33.54 33.76 36.07
25.91 25.35 16.80 10.01 12.97 17.70 22.41 17.43 25.67 30.06 31.91 32.45 33.15 31.54 28.96 27.46 27.62 27.17 27.89 28.14 27.54 27.38 26.53 26.75 26.51 25.32 25.44 25.32 24.89 24.90 24.48 23.67 23.62 22.98 22.20 22.00 22.13 22.90 24.17 24.96 25.74 27.45 28.93 30.13 31.89 33.08 33.31 33.11 34.14
26.41 20.77 25.68 13.29 7.38 11.42 20.00 23.23 28.54 28.54 28.19 28.35 28.99 28.72 27.86 27.15 27.33 27.55 28.22 27.53 26.63 26.02 26.07 25.58 25.32 25.10 24.53 24.27 24.27 23.36 23.22 22.88 21.76 22.04 21.60 20.90 21.18 22.62 22.38 23.56 24.12 25.48 26.80 28.85 30.45 31.17 31.68 32.54 32.44
25.71 27.65 19.11 15.13 9.14 7.04 17.73 21.37 25.06 24.86 26.06 26.81 26.55 27.78 26.83 26.97 26.96 27.82 27.37 26.44 25.99 26.20 25.94 25.76 25.09 23.81 23.65 23.66 22.78 22.56 21.82 21.23 21.03 20.57 18.82 18.57 18.83 19.46 20.36 21.91 22.75 23.74 25.00 26.77 29.18 30.13 31.36 31.80 31.42
22.96 20.17 21.43 22.04 21.57 13.73 10.88 19.20 28.45 29.52 27.78 27.42 27.54 27.92 27.04 26.63 26.95 27.44 26.83 26.22 25.64 25.59 24.41 23.76 23.64 23.10 22.49 22.53 21.79 20.32 19.40 18.89 18.74 17.50 16.18 16.43 16.80 17.26 18.74 20.77 21.78 22.50 23.60 25.35 27.61 29.38 30.38 30.30 31.02
25.31 24.08 23.00 15.80 15.55 16.91 16.01 17.49 28.05 26.78 28.83 30.12 28.70 27.77 27.66 27.29 27.33 27.23 26.47 25.68 24.64 23.21 22.57 21.81 21.99 21.52 20.98 20.48 19.23 17.66 17.18 16.86 15.23 14.13 14.04 14.70 14.28 15.87 17.65 19.56 20.77 21.77 22.95 24.40 27.32 27.96 28.96 29.37 29.97
MSLP
1013.39 1012.59 1012.60 1013.00 1015.59 1018.39 1019.81 1021.07 1020.72 1020.98 1021.40 1022.39 1022.42 1022.92 1024.86 1025.45 1025.59 1026.83 1026.29 1025.89 1025.45 1025.19 1024.73 1024.34 1023.77 1023.13 1022.34 1021.60 1021.01 1020.21 1019.49 1018.77 1018.08 1017.61 1017.25 1016.82 1016.33 1015.92 1015.37 1015.11 1014.80 1014.21 1013.67 1013.52 1013.13 1012.62 1012.20 1011.75 1011.43
1013.91 1013.09 1013.16 1014.64 1017.72 1020.12 1021.35 1021.06 1021.17 1021.16 1021.71 1022.06 1022.99 1023.82 1024.89 1026.08 1025.86 1026.37 1026.44 1026.01 1025.68 1025.39 1024.91 1024.49 1023.82 1023.17 1022.53 1021.89 1021.32 1020.58 1019.91 1019.35 1018.58 1017.85 1017.56 1017.23 1016.83 1016.43 1015.80 1015.22 1015.07 1014.55 1014.08 1013.45 1012.88 1012.71 1012.03 1011.62 1011.32
1013.90 1014.01 1014.84 1016.27 1018.93 1020.36 1021.03 1021.05 1021.21 1021.42 1021.39 1021.76 1023.62 1024.46 1025.74 1026.87 1026.69 1026.82 1026.67 1026.26 1025.93 1025.58 1025.17 1024.69 1023.97 1023.32 1022.60 1022.15 1021.62 1021.07 1020.39 1019.87 1019.09 1018.43 1017.80 1017.38 1017.01 1016.65 1016.20 1015.76 1015.23 1014.87 1014.26 1013.74 1013.05 1012.59 1012.02 1011.56 1011.23
1014.00 1014.41 1016.05 1018.41 1019.92 1020.38 1020.47 1020.61 1020.79 1021.45 1021.92 1022.54 1023.90 1025.78 1026.77 1027.10 1026.96 1027.04 1026.67 1026.43 1026.26 1025.81 1025.44 1025.00 1024.15 1023.59 1022.89 1022.57 1021.97 1021.39 1020.86 1020.16 1019.61 1018.97 1018.48 1017.71 1017.19 1016.97 1016.58 1016.11 1015.58 1015.23 1014.59 1014.05 1013.28 1012.70 1011.97 1011.70 1011.24
1014.25 1015.71 1018.06 1020.01 1020.49 1020.54 1020.37 1020.63 1020.95 1021.80 1022.83 1023.54 1023.90 1026.53 1027.18 1027.34 1027.09 1027.07 1026.87 1026.68 1026.60 1026.25 1025.79 1025.17 1024.61 1024.10 1023.45 1022.86 1022.36 1021.63 1021.19 1020.68 1020.42 1019.82 1019.30 1018.54 1017.73 1017.26 1016.87 1016.38 1015.93 1015.36 1014.68 1014.06 1013.69 1013.08 1012.48 1011.76 1011.08
1015.07 1016.39 1019.73 1020.99 1021.21 1020.89 1020.67 1020.78 1021.36 1022.44 1023.58 1024.26 1025.20 1026.30 1027.77 1027.60 1027.33 1027.31 1027.01 1027.08 1026.81 1026.50 1026.06 1025.62 1025.11 1024.45 1023.87 1023.35 1022.92 1022.16 1021.91 1021.38 1021.17 1020.70 1020.00 1019.40 1018.66 1017.89 1017.33 1016.64 1016.04 1015.34 1014.87 1014.23 1013.82 1013.12 1012.46 1011.75 1010.88
1015.54 1017.45 1019.94 1020.91 1021.57 1021.41 1021.20 1021.13 1022.25 1023.21 1024.08 1024.94 1025.17 1026.67 1027.88 1027.87 1027.66 1027.57 1027.49 1027.34 1027.12 1026.88 1026.46 1025.95 1025.45 1024.88 1024.47 1024.18 1023.62 1023.03 1022.73 1022.23 1021.70 1021.20 1020.67 1019.93 1019.25 1018.52 1017.86 1017.42 1016.50 1015.70 1015.24 1014.67 1013.97 1013.25 1012.43 1011.72 1010.93
1015.46 1017.58 1020.07 1020.72 1021.37 1021.67 1021.53 1022.12 1023.13 1023.61 1024.92 1025.24 1025.61 1026.99 1027.99 1028.05 1027.81 1027.65 1027.69 1027.79 1027.51 1027.02 1026.72 1026.28 1025.85 1025.28 1024.86 1024.62 1024.17 1023.66 1023.36 1023.20 1022.67 1022.05 1021.38 1020.76 1019.95 1019.10 1018.34 1017.59 1016.98 1016.18 1015.57 1014.84 1014.18 1013.41 1012.49 1011.84 1010.91
1015.29 1017.64 1019.89 1020.53 1021.23 1021.64 1021.79 1022.80 1024.05 1024.95 1025.29 1026.08 1026.71 1027.24 1027.91 1027.91 1027.93 1028.27 1028.37 1028.19 1027.85 1027.55 1027.30 1026.95 1026.46 1025.71 1025.19 1024.74 1024.27 1024.02 1023.92 1023.59 1022.97 1022.55 1022.05 1021.18 1020.48 1019.80 1018.97 1018.19 1017.21 1016.58 1015.89 1015.23 1014.30 1013.66 1012.89 1012.14 1011.43
1016.41 1018.40 1019.52 1019.64 1020.37 1021.44 1022.23 1023.05 1024.43 1025.82 1026.46 1027.41 1027.59 1027.81 1027.90 1028.10 1028.40 1028.75 1028.78 1028.75 1028.50 1028.15 1027.70 1027.31 1026.61 1026.15 1025.65 1025.13 1024.77 1024.47 1024.10 1023.96 1023.68 1023.37 1022.93 1022.09 1021.26 1020.57 1019.72 1018.71 1017.88 1017.07 1016.21 1015.59 1014.75 1014.14 1013.33 1012.65 1011.98
1017.66 1019.36 1019.76 1020.04 1020.20 1021.05 1022.76 1024.01 1024.69 1025.93 1027.17 1027.22 1027.75 1028.11 1028.38 1028.63 1028.82 1028.83 1028.97 1028.94 1028.81 1028.44 1027.99 1027.64 1027.11 1026.51 1026.17 1025.79 1025.51 1025.07 1024.64 1024.37 1024.09 1023.76 1023.24 1022.74 1021.65 1020.98 1020.17 1019.38 1018.64 1017.65 1016.76 1015.91 1015.17 1014.59 1013.93 1013.16 1012.49
1019.26 1020.10 1020.10 1020.85 1020.98 1021.70 1023.21 1024.48 1025.71 1026.15 1026.83 1027.28 1027.73 1028.11 1028.61 1028.99 1029.09 1029.25 1029.36 1029.30 1029.14 1028.87 1028.49 1028.16 1027.68 1026.99 1026.59 1026.24 1025.99 1025.63 1025.11 1024.81 1024.51 1024.36 1023.97 1023.11 1022.60 1021.84 1021.02 1020.32 1019.33 1018.39 1017.40 1016.43 1015.59 1014.82 1014.36 1013.54 1012.89
1020.31 1020.90 1021.09 1021.44 1021.83 1022.94 1023.56 1025.15 1025.98 1027.11 1027.25 1027.52 1028.00 1028.42 1028.75 1028.91 1029.08 1029.21 1029.34 1029.43 1029.30 1029.15 1028.73 1028.35 1027.95 1027.57 1027.05 1026.57 1026.25 1025.78 1025.47 1025.17 1025.04 1024.63 1024.32 1023.91 1023.25 1022.74 1021.67 1020.82 1020.03 1019.03 1018.06 1017.08 1015.88 1015.05 1014.44 1013.93 1013.43
1021.11 1021.56 1022.18 1022.53 1022.94 1023.62 1024.58 1025.86 1026.05 1027.44 1027.48 1027.87 1028.23 1028.57 1028.74 1028.92 1029.17 1029.41 1029.37 1029.38 1029.23 1028.97 1028.72 1028.41 1028.10 1027.79 1027.45 1027.07 1026.69 1026.26 1025.65 1025.35 1025.31 1025.22 1024.93 1024.50 1024.00 1023.30 1022.67 1021.68 1020.70 1019.81 1018.65 1017.60 1016.39 1015.21 1014.80 1014.37 1013.80
1021.79 1022.68 1023.13 1023.50 1023.53 1024.34 1024.70 1026.15 1026.60 1027.04 1027.46 1028.18 1028.42 1028.63 1028.88 1028.98 1029.15 1029.34 1029.31 1029.33 1029.29 1029.07 1028.92 1028.54 1028.14 1028.00 1027.76 1027.46 1027.07 1026.57 1026.09 1025.79 1025.65 1025.46 1025.28 1024.88 1024.35 1023.84 1023.09 1022.23 1021.17 1020.16 1019.03 1018.06 1016.89 1015.59 1014.78 1014.33 1014.00
1022.57 1023.20 1023.98 1023.90 1023.91 1024.40 1024.87 1025.88 1026.57 1026.93 1027.53 1028.15 1028.50 1028.71 1028.95 1029.09 1029.18 1029.18 1029.17 1029.28 1029.32 1029.27 1029.13 1028.93 1028.54 1028.37 1028.08 1027.77 1027.40 1026.87 1026.48 1026.42 1026.24 1025.91 1025.59 1025.12 1024.62 1024.16 1023.44 1022.73 1021.67 1020.93 1019.73 1018.62 1017.56 1016.53 1015.15 1014.62 1014.37
1023.07 1023.49 1023.93 1024.21 1024.00 1024.46 1025.05 1025.81 1026.20 1026.58 1027.18 1027.96 1028.35 1028.63 1028.81 1028.98 1028.98 1029.04 1029.09 1029.33 1029.47 1029.49 1029.30 1029.16 1028.97 1028.80 1028.53 1028.15 1027.65 1027.14 1026.65 1026.36 1026.30 1026.14 1025.92 1025.64 1025.17 1024.62 1024.11 1023.20 1021.92 1020.98 1020.15 1019.21 1018.19 1017.15 1015.97 1014.91 1014.38
1022.78 1023.46 1023.69 1023.93 1024.10 1024.62 1025.17 1025.67 1026.16 1026.37 1026.80 1027.24 1027.65 1028.02 1028.10 1028.36 1028.66 1028.74 1028.92 1029.03 1029.43 1029.51 1029.47 1029.35 1029.13 1029.02 1028.76 1028.55 1028.15 1027.39 1026.86 1026.73 1026.62 1026.60 1026.28 1025.96 1025.55 1025.06 1024.53 1023.65 1022.47 1021.31 1020.62 1019.92 1018.84 1017.84 1016.43 1015.28 1014.79
1021.67 1022.42 1023.23 1023.86 1024.01 1024.56 1025.02 1025.44 1025.76 1025.99 1026.45 1026.90 1027.37 1027.67 1028.00 1028.15 1028.25 1028.51 1028.71 1028.87 1029.39 1029.60 1029.70 1029.58 1029.42 1029.28 1029.09 1028.97 1028.48 1027.92 1027.73 1027.38 1027.13 1026.99 1026.64 1026.15 1025.87 1025.37 1024.85 1024.07 1023.03 1022.18 1021.37 1020.62 1019.57 1018.56 1017.04 1015.97 1014.97
1021.62 1022.73 1023.72 1024.28 1024.18 1024.64 1024.83 1024.93 1025.27 1025.21 1025.18 1025.60 1026.46 1027.04 1027.56 1027.89 1028.28 1028.55 1028.70 1029.20 1029.71 1029.92 1029.87 1029.89 1029.87 1029.70 1029.58 1029.31 1028.87 1028.62 1028.31 1028.00 1027.63 1027.29 1026.98 1026.61 1026.21 1025.82 1025.21 1024.64 1023.84 1022.88 1021.97 1020.95 1019.78 1018.94 1017.78 1016.99 1015.86
1022.41 1022.92 1023.79 1024.31 1024.79 1024.88 1025.19 1024.88 1024.50 1024.24 1024.44 1024.95 1025.48 1026.02 1026.86 1027.38 1028.00 1028.52 1028.93 1029.45 1029.85 1030.06 1030.18 1030.18 1030.10 1030.09 1030.00 1029.79 1029.29 1028.92 1028.65 1028.43 1028.21 1028.00 1027.55 1027.20 1026.73 1026.28 1025.68 1024.92 1024.11 1023.41 1022.47 1021.56 1020.69 1019.59 1018.74 1018.07 1016.86
1022.79 1023.11 1023.85 1024.70 1025.49 1025.90 1025.92 1025.63 1024.00 1023.59 1023.88 1024.17 1024.81 1025.66 1026.60 1027.02 1027.61 1028.23 1028.76 1029.33 1029.80 1030.15 1030.25 1030.36 1030.39 1030.29 1030.17 1030.23 1029.92 1029.60 1029.68 1029.56 1029.25 1028.80 1028.30 1027.71 1027.21 1026.70 1026.01 1025.17 1024.39 1023.86 1023.05 1022.10 1021.38 1020.44 1019.85 1019.10 1017.98
1023.33 1023.72 1024.57 1025.62 1026.36 1026.67 1026.77 1026.85 1023.30 1023.40 1023.93 1023.59 1024.41 1025.24 1026.02 1026.64 1027.37 1028.27 1028.80 1029.33 1029.89 1030.24 1030.60 1030.59 1030.64 1030.67 1030.71 1030.64 1030.29 1030.15 1030.20 1030.28 1029.83 1029.32 1028.85 1028.17 1027.65 1027.13 1026.30 1025.50 1024.85 1024.18 1023.46 1022.66 1021.85 1021.10 1020.39 1019.55 1019.26
1023.70 1024.60 1025.76 1026.92 1027.63 1027.88 1026.37 1026.57 1024.02 1023.22 1021.75 1022.20 1023.44 1024.16 1025.22 1026.23 1027.17 1028.03 1028.74 1029.46 1030.14 1030.45 1030.62 1030.74 1030.77 1031.01 1031.22 1030.96 1030.72 1030.61 1030.80 1030.73 1030.44 1029.76 1029.52 1028.98 1028.50 1027.73 1026.94 1026.16 1025.30 1024.65 1023.79 1023.04 1022.21 1021.52 1020.92 1020.13 1019.59
1024.59 1025.73 1027.68 1029.04 1029.12 1027.98 1026.81 1026.37 1022.41 1020.76 1020.64 1020.79 1021.81 1023.28 1024.54 1025.75 1026.91 1027.99 1028.75 1029.57 1030.10 1030.44 1030.80 1030.92 1030.96 1031.35 1031.25 1031.19 1030.98 1031.02 1031.06 1031.09 1030.84 1030.47 1030.17 1029.71 1029.15 1028.45 1027.65 1026.97 1026.08 1025.15 1024.39 1023.45 1022.51 1021.78 1021.08 1020.50 1019.72
1024.93 1025.65 1026.88 1028.42 1029.46 1028.56 1027.18 1025.09 1020.99 1019.82 1019.75 1020.11 1021.07 1022.66 1024.28 1025.72 1026.66 1027.67 1028.53 1029.47 1030.07 1030.50 1030.78 1031.01 1031.11 1031.49 1031.53 1031.40 1031.25 1031.21 1031.33 1031.57 1031.29 1030.94 1030.67 1030.36 1030.00 1029.35 1028.47 1027.62 1026.68 1025.63 1024.75 1023.84 1022.87 1022.14 1021.50 1020.99 1020.32
1025.25 1025.77 1026.33 1027.95 1029.82 1028.85 1025.97 1023.65 1020.57 1019.95 1020.11 1020.58 1021.50 1022.84 1024.14 1025.37 1026.39 1027.42 1028.34 1029.29 1030.00 1030.61 1030.95 1031.02 1031.13 1031.57 1031.70 1031.61 1031.45 1031.57 1031.62 1031.75 1031.60 1031.23 1031.02 1030.75 1030.33 1029.62 1028.89 1028.05 1027.04 1026.09 1025.31 1024.38 1023.35 1022.67 1021.99 1021.37 1020.72
1025.04 1025.34 1026.59 1028.00 1029.16 1028.50 1025.83 1023.70 1020.97 1020.11 1020.39 1020.89 1021.78 1022.52 1023.76 1024.94 1026.16 1027.08 1028.05 1029.09 1029.86 1030.34 1030.90 1031.06 1031.29 1031.74 1031.89 1031.84 1031.77 1032.04 1031.93 1031.99 1031.93 1031.58 1031.41 1031.05 1030.67 1030.06 1029.33 1028.30 1027.41 1026.50 1025.71 1024.91 1023.85 1022.98 1022.23 1021.57 1020.89
1025.30 1025.53 1026.32 1026.91 1027.40 1027.16 1025.73 1022.72 1019.15 1018.62 1019.17 1020.01 1021.00 1021.78 1022.81 1024.08 1025.35 1026.69 1027.72 1028.63 1029.36 1030.18 1030.88 1031.21 1031.56 1031.93 1032.09 1032.20 1032.16 1032.37 1032.43 1032.37 1032.29 1032.08 1031.95 1031.57 1031.12 1030.53 1029.73 1028.68 1027.87 1026.98 1026.14 1025.31 1024.49 1023.66 1022.85 1022.03 1021.19
1024.59 1024.86 1025.43 1026.81 1027.32 1026.54 1025.21 1021.21 1018.56 1018.41 1018.89 1019.70 1020.70 1021.57 1022.73 1023.82 1025.05 1026.20 1027.43 1028.33 1029.33 1030.20 1031.01 1031.29 1031.76 1032.18 1032.49 1032.70 1032.47 1032.87 1033.04 1032.89 1032.94 1032.77 1032.38 1032.05 1031.54 1030.91 1030.05 1029.09 1028.21 1027.37 1026.59 1025.75 1024.85 1024.08 1023.39 1022.60 1021.81
Wind_Speed
12 10 2 6 8 8 4 4 5 4 7 6 9 18 13 7 6 6 5 9 10 10 11 11 23 23 24 24 25 24 24 25 26 25 25 26 25 25 22 21 21 22 23 21 22 22 22 20 20
6 7 5 3 8 6 2 4 9 6 10 16 10 6 9 6 7 3 6 9 9 10 10 12 22 23 23 24 24 25 25 25 26 25 24 24 25 25 25 24 24 23 22 23 21 23 22 23 22
4 3 5 5 5 5 6 6 6 4 4 4 7 8 5 5 5 3 6 8 8 9 11 13 22 23 22 25 25 26 26 25 25 27 25 25 24 25 26 25 25 24 24 24 24 22 22 22 23
4 5 7 7 9 5 7 8 8 6 8 11 11 9 6 4 3 4 8 8 8 10 12 14 24 24 23 26 26 26 26 26 29 29 29 26 24 25 25 25 25 24 24 24 25 26 23 22 23
4 4 7 6 6 4 5 6 8 8 6 4 3 4 5 3 5 7 8 8 9 8 10 12 24 24 23 25 26 27 29 28 29 27 29 29 26 25 26 25 25 25 24 25 24 24 24 24 24
5 6 6 5 4 2 4 8 9 12 9 5 9 7 3 4 5 6 8 8 8 9 12 12 16 24 24 25 26 26 29 28 28 29 30 27 27 26 26 26 25 25 25 25 25 23 23 24 24
4 6 5 8 7 3 3 5 6 6 6 5 6 6 4 4 6 7 8 8 8 9 12 12 12 15 19 25 26 25 28 28 29 29 30 28 24 25 25 25 26 26 26 25 24 25 25 24 23
5 6 7 5 8 5 2 5 4 9 4 2 4 4 3 2 7 7 8 8 7 11 10 11 11 11 11 13 23 24 27 27 28 29 30 26 26 26 24 23 24 25 25 25 25 24 25 25 23
3 7 4 8 9 6 5 6 5 3 8 5 5 5 6 5 8 9 6 7 8 9 8 11 11 10 11 11 11 17 21 23 24 23 27 19 13 17 21 21 25 24 23 24 24 24 23 24 20
7 6 2 2 8 10 6 8 8 6 5 6 6 6 8 7 7 7 7 7 8 10 8 10 12 11 11 9 10 9 10 10 11 13 15 12 16 16 17 18 23 23 22 22 23 23 22 16 8
4 5 2 7 10 11 11 6 3 13 5 2 7 7 6 7 7 7 7 5 6 6 8 10 11 10 7 9 6 6 5 7 8 14 14 13 12 13 12 10 10 11 14 9 12 11 9 11 9
9 7 6 2 6 8 6 5 6 4 6 8 8 7 6 7 7 7 7 7 7 6 7 8 9 10 8 5 5 5 5 7 7 9 13 11 10 14 13 10 12 11 11 12 10 6 9 10 11
9 3 7 8 11 9 12 6 7 5 7 9 9 8 7 7 6 6 7 6 6 7 7 8 8 9 9 6 4 5 5 6 7 8 11 9 10 11 11 13 12 12 11 12 10 9 7 7 9
6 9 6 8 8 5 10 4 5 5 7 8 8 7 7 7 6 4 5 5 6 5 6 7 8 10 10 9 8 5 4 5 5 5 9 12 9 9 11 11 12 13 11 11 11 9 5 5 5
10 10 7 4 3 4 10 2 3 7 8 8 8 7 6 6 6 4 4 5 5 4 5 7 8 9 10 9 8 6 5 5 7 7 9 12 11 11 10 11 10 13 11 13 13 13 5 4 4
6 5 5 5 5 5 4 4 5 9 9 9 8 7 6 5 5 4 5 5 6 5 6 7 8 9 10 9 7 7 7 5 6 7 7 13 13 14 11 10 11 12 12 11 11 12 7 3 3
1 3 4 2 6 5 5 3 6 9 9 9 9 9 8 6 5 4 5 5 4 5 6 7 7 8 8 9 8 8 7 4 4 6 8 12 11 13 10 9 11 13 10 12 11 12 11 6 3
7 4 3 6 6 5 5 3 6 9 9 11 10 9 9 8 7 6 6 5 5 5 6 6 5 7 7 6 6 6 7 6 6 5 8 10 9 12 10 9 11 12 10 12 12 14 12 7 4
6 5 7 2 2 5 8 6 10 10 8 9 9 9 9 8 7 6 6 6 6 6 6 5 6 7 5 4 6 6 7 7 7 7 9 10 10 11 11 10 11 11 11 13 14 10 15 11 3
2 5 3 2 2 2 5 9 10 12 11 10 11 9 9 7 6 6 5 7 5 4 5 6 6 7 6 4 4 3 5 5 5 8 10 11 11 11 11 11 11 11 10 14 14 15 10 8 12
3 6 5 4 2 2 2 9 8 10 7 8 9 10 8 10 9 7 7 7 5 5 4 6 6 7 6 7 4 5 4 6 7 8 9 11 11 11 11 11 10 11 9 10 13 13 16 10 10
4 3 6 9 5 4 4 7 5 12 15 13 9 9 10 9 8 6 7 6 6 3 5 7 6 7 7 7 6 9 6 6 6 7 7 8 10 11 12 12 11 11 9 11 11 11 10 10 11
3 2 6 4 2 3 2 2 8 6 12 17 12 11 10 9 10 8 7 7 6 6 5 6 6 7 6 6 7 6 7 5 5 6 10 10 10 11 13 14 12 11 9 10 12 13 12 8 8
6 7 8 6 3 3 5 6 7 7 13 8 9 13 13 10 10 9 7 8 6 5 6 6 7 6 6 6 7 8 8 8 7 9 8 9 8 9 12 14 12 11 11 11 10 10 12 11 8
3 6 4 5 4 8 3 4 11 8 9 12 19 16 13 13 10 9 9 7 6 6 5 5 6 6 6 6 7 7 7 7 7 8 7 9 9 10 12 14 13 11 11 11 11 10 10 12 9
6 6 8 9 4 4 4 8 10 6 9 7 12 15 15 13 11 10 9 8 7 6 6 6 6 6 6 6 7 6 7 4 4 6 7 6 7 8 12 12 11 13 13 11 11 8 8 10 10
6 4 4 8 2 5 5 8 12 3 2 4 12 16 16 14 13 12 10 8 8 6 6 6 7 5 5 5 5 6 6 7 7 8 8 7 9 10 12 13 13 13 12 12 12 9 10 9 10
2 4 4 4 2 5 5 5 9 7 9 7 12 17 15 13 12 11 10 9 6 7 6 6 7 6 5 5 6 6 6 7 7 8 10 10 10 11 12 12 13 13 12 12 12 10 11 11 9
2 2 1 3 5 6 3 8 8 11 13 17 16 17 18 16 14 12 10 9 8 7 6 6 6 5 5 5 6 7 7 8 8 8 10 10 11 12 11 11 12 12 12 12 11 12 12 13 12
4 6 7 7 6 3 4 11 3 2 8 13 14 14 14 14 14 13 12 11 9 7 6 6 6 5 5 5 6 7 8 8 9 10 11 11 11 11 12 11 11 11 11 11 11 12 13 13 13
Wind_Direction
322 307 325 43 57 63 38 52 105 63 74 65 77 87 102 60 54 132 296 353 1 2 357 356 359 1 2 4 0 1 2 360 2 4 6 4 1 355 356 353 352 350 346 347 344 341 340 338 322
329 316 38 73 89 85 20 88 78 94 120 126 84 82 51 67 22 75 14 341 12 0 358 348 1 4 7 11 5 7 6 1 3 4 7 5 3 358 356 356 352 347 342 346 343 336 340 333 328
316 229 69 77 93 137 139 129 124 85 82 119 108 57 65 337 35 36 322 5 10 358 2 356 6 8 10 15 13 12 8 6 2 358 2 5 4 5 1 355 350 348 345 343 342 340 337 333 325
5 14 32 71 90 9 113 157 132 96 33 60 112 74 82 25 36 9 10 16 10 2 2 355 9 12 11 18 13 14 14 11 11 13 5 0 5 4 2 358 354 350 347 344 341 336 341 337 328
39 62 60 81 67 80 53 104 126 109 102 107 123 93 97 25 18 41 32 23 21 355 359 0 10 9 6 18 13 16 13 16 10 10 6 2 -0 5 4 0 356 352 348 347 342 333 330 328 322
21 91 81 96 93 62 51 98 86 85 100 85 81 97 75 338 36 42 38 23 20 6 7 3 1 7 9 18 16 18 14 12 14 12 8 6 1 4 3 358 355 354 351 350 341 339 334 332 323
103 82 135 130 132 75 86 58 73 88 65 7 170 98 130 16 37 60 43 25 15 5 15 5 357 356 5 20 15 17 16 12 10 8 5 4 4 5 1 358 356 351 351 351 347 343 339 334 327
105 86 122 145 160 185 127 82 121 62 57 261 38 131 112 33 53 48 40 21 15 20 17 6 357 357 2 18 16 18 19 13 10 6 1 -0 357 358 358 356 354 353 351 349 349 347 347 338 334
70 77 148 172 146 160 139 96 19 22 76 49 62 98 134 83 61 44 12 3 15 15 7 3 354 360 13 21 13 19 19 14 11 6 3 359 354 354 350 347 354 353 351 348 350 349 350 342 333
69 91 90 207 150 144 114 119 132 86 80 73 76 69 81 68 71 60 34 22 14 12 0 8 3 359 20 12 11 15 10 10 10 5 0 0 360 353 351 348 346 348 351 345 348 347 348 343 332
49 115 143 11 100 113 127 73 40 130 59 144 147 123 97 77 63 66 43 23 22 5 7 355 1 360 16 11 358 4 7 8 6 9 8 357 359 358 355 347 341 341 346 345 340 343 343 339 336
94 53 80 39 84 90 94 86 68 33 138 132 121 115 100 85 62 57 46 26 18 10 2 354 354 4 1 2 6 360 2 13 11 7 3 6 1 356 356 349 345 345 342 334 334 333 337 341 340
71 78 50 88 81 74 82 87 125 100 118 108 102 91 98 93 80 61 62 32 21 21 1 2 7 7 358 357 346 7 9 17 5 11 7 1 1 358 350 350 348 344 338 329 327 327 338 340 342
106 87 84 64 81 91 109 137 85 205 145 133 119 120 109 102 102 62 55 35 25 22 12 13 15 4 3 2 348 349 360 16 14 5 4 2 356 352 350 350 349 346 338 333 323 320 323 334 340
105 76 40 99 119 126 122 118 132 173 154 145 137 141 131 130 104 108 86 59 34 360 20 21 23 11 3 359 357 349 355 15 21 11 4 2 4 353 347 349 348 345 341 339 338 328 319 331 341
77 84 116 243 139 169 103 251 194 179 153 172 166 166 156 150 138 121 84 64 35 27 36 28 25 13 6 354 355 0 8 15 16 10 6 2 359 356 349 343 353 343 345 345 346 337 322 324 346
290 181 137 231 197 152 164 235 202 175 169 186 185 183 173 168 147 132 108 83 57 51 45 34 25 14 6 354 351 356 353 15 14 12 9 1 357 355 352 342 345 349 346 351 351 338 334 322 334
189 206 146 175 224 154 194 226 204 196 180 188 192 188 181 172 177 157 138 113 85 62 51 41 30 21 9 352 339 351 358 359 8 3 7 360 357 355 353 344 347 347 350 352 354 345 335 320 319
172 145 130 131 104 156 221 218 207 213 204 193 197 189 186 176 175 156 151 140 101 59 51 34 38 20 16 358 359 3 359 359 1 4 354 359 359 357 354 351 348 351 346 348 352 350 344 341 302
30 123 97 54 156 155 227 241 207 206 214 192 189 191 183 169 152 162 132 88 88 92 49 36 44 32 15 351 355 2 355 356 353 358 358 355 356 356 356 351 350 347 347 351 351 359 352 332 342
36 158 180 158 141 348 315 285 197 228 205 197 199 185 173 166 161 152 113 112 104 76 48 56 53 41 23 3 0 9 353 0 2 359 351 348 349 347 354 352 355 349 349 354 348 355 358 345 337
147 320 129 132 118 210 130 275 240 207 207 211 194 168 168 164 146 144 131 117 117 105 69 68 58 45 30 13 26 32 12 2 353 348 342 345 348 347 353 354 353 350 346 353 353 346 352 355 350
168 117 126 125 103 69 212 76 276 157 220 219 196 180 181 173 154 147 140 128 131 97 91 80 68 47 27 26 39 40 21 352 342 350 348 350 349 347 354 354 353 349 348 346 352 354 349 354 352
138 71 42 41 58 0 212 166 270 201 222 208 195 194 175 166 153 146 136 129 113 93 88 78 75 50 30 31 36 41 26 358 352 358 353 351 344 342 353 351 350 347 346 348 346 347 352 347 359
51 88 10 352 1 221 338 167 244 231 230 199 196 188 170 164 150 148 142 139 127 108 93 97 78 52 33 33 39 38 23 3 356 359 352 350 345 344 348 345 346 346 342 344 345 349 351 351 343
186 161 159 202 196 255 355 236 253 214 246 196 187 172 156 162 155 153 151 147 138 127 112 102 87 68 42 35 32 32 29 6 356 358 355 351 344 334 340 337 343 346 344 347 348 346 352 349 344
196 198 166 102 54 56 226 272 297 206 141 142 152 158 166 164 157 153 147 148 142 137 135 122 101 79 56 43 33 30 23 9 3 359 358 348 342 338 339 337 343 345 345 345 350 350 347 345 349
177 167 85 349 163 264 280 268 250 247 212 181 172 174 169 162 159 155 148 148 144 145 137 110 99 91 66 47 39 30 21 8 2 358 354 347 339 338 336 340 343 343 344 346 352 351 348 347 352
147 237 22 136 157 183 240 254 220 229 190 197 188 182 172 169 164 159 154 148 148 137 132 112 96 83 58 41 39 32 16 6 4 1 353 348 338 336 336 339 339 341 342 344 350 353 351 348 352
193 194 161 134 237 237 146 260 227 227 224 193 191 179 174 166 160 157 154 152 149 141 136 116 101 82 56 51 47 29 18 10 7 1 355 348 343 339 336 341 341 340 341 337 348 357 353 348 351